Location: Roland
(31.1349°N, 85.4372°W)
Time: 16:14:12
(UTC+00:00)

Vanguard 2 Rocket - Pass Details

Date: 09 December 2021
Orbit: 554 x 3324 km, 32.9° (Epoch: 16 January)

Event Time Altitude Azimuth Distance (km) Brightness Sun altitude
Rises 00:24:48 0° 277° (W) 3,169 10.9 -22.0°
Reaches altitude 10° 00:26:46 10° 278° (W) 2,428 10.0 -22.4°
Maximum altitude 00:32:28 79° 6° (N) 1,169 7.3 -23.6°
Enters shadow 00:35:44 42° 86° (E) 1,867 7.9 -24.2°
